Time,TemperatureF,DewpointF,PressureIn,WindDirection,WindDirectionDegrees,WindSpeedMPH,WindSpeedGustMPH,Humidity,HourlyPrecipIn,Conditions,Clouds,dailyrainin,SolarRadiationWatts/m^2,SoftwareType,DateUTC
2013-05-11 00:12:00,47.0,45.0,-100.00,South,190,5.0,8.0,91,0.00,,,0.16,0.000000,,2013-05-11 05:12:00,
2013-05-11 00:22:00,47.0,45.0,-100.00,South,190,5.0,8.0,91,0.00,,,0.16,0.000000,,2013-05-11 05:22:00,
2013-05-11 00:32:00,47.0,45.0,-100.00,South,190,5.0,8.0,91,0.00,,,0.16,0.000000,,2013-05-11 05:32:00,
2013-05-11 00:42:00,47.0,45.0,-100.00,South,190,5.0,8.0,91,0.00,,,0.16,0.000000,,2013-05-11 05:42:00,
2013-05-11 01:12:00,47.0,45.0,-100.00,SW,216,5.0,6.0,91,0.00,,,0.08,0.000000,,2013-05-11 06:12:00,
2013-05-11 01:21:00,47.0,45.0,-100.00,SW,216,5.0,6.0,91,0.00,,,0.08,0.000000,,2013-05-11 06:21:00,
2013-05-11 01:32:00,47.0,45.0,-100.00,SW,216,5.0,6.0,91,0.00,,,0.08,0.000000,,2013-05-11 06:32:00,
2013-05-11 01:42:00,47.0,45.0,-100.00,SW,216,5.0,6.0,91,0.00,,,0.08,0.000000,,2013-05-11 06:42:00,
2013-05-11 02:12:00,48.0,45.0,-100.00,SSW,200,6.0,8.0,89,0.00,,,0.05,0.000000,,2013-05-11 07:12:00,
2013-05-11 02:21:00,48.0,45.0,-100.00,SSW,200,6.0,8.0,89,0.00,,,0.05,0.000000,,2013-05-11 07:21:00,
2013-05-11 02:32:00,48.0,45.0,-100.00,SSW,200,6.0,8.0,89,0.00,,,0.05,0.000000,,2013-05-11 07:32:00,
2013-05-11 02:42:00,48.0,45.0,-100.00,SSW,200,6.0,8.0,89,0.00,,,0.05,0.000000,,2013-05-11 07:42:00,
2013-05-11 03:12:00,47.0,45.0,-100.00,SSW,193,5.0,8.0,94,0.00,,,0.03,0.000000,,2013-05-11 08:12:00,
2013-05-11 03:21:00,47.0,45.0,-100.00,SSW,193,5.0,8.0,94,0.00,,,0.03,0.000000,,2013-05-11 08:21:00,
2013-05-11 03:32:00,47.0,45.0,-100.00,SSW,193,5.0,8.0,94,0.00,,,0.03,0.000000,,2013-05-11 08:32:00,
2013-05-11 03:42:00,47.0,45.0,-100.00,SSW,193,5.0,8.0,94,0.00,,,0.03,0.000000,,2013-05-11 08:42:00,
2013-05-11 04:11:00,47.0,45.0,-100.00,SW,215,5.0,7.0,94,0.00,,,0.02,0.000000,,2013-05-11 09:11:00,
2013-05-11 04:21:00,47.0,45.0,-100.00,SW,215,5.0,7.0,94,0.00,,,0.02,0.000000,,2013-05-11 09:21:00,
2013-05-11 04:32:00,47.0,45.0,-100.00,SW,215,5.0,7.0,94,0.00,,,0.02,0.000000,,2013-05-11 09:32:00,
2013-05-11 04:42:00,47.0,45.0,-100.00,SW,215,5.0,7.0,94,0.00,,,0.02,0.000000,,2013-05-11 09:42:00,
2013-05-11 05:12:00,48.0,47.0,-100.00,NW,315,4.0,14.0,95,0.02,,,0.03,0.000000,,2013-05-11 10:12:00,
2013-05-11 05:22:00,48.0,47.0,-100.00,NW,315,4.0,14.0,95,0.02,,,0.03,0.000000,,2013-05-11 10:22:00,
2013-05-11 05:33:00,48.0,47.0,-100.00,NW,315,4.0,14.0,95,0.02,,,0.03,0.000000,,2013-05-11 10:33:00,
2013-05-11 05:42:00,48.0,47.0,-100.00,NW,315,4.0,14.0,95,0.02,,,0.03,0.000000,,2013-05-11 10:42:00,
2013-05-11 06:12:00,48.0,47.0,-100.00,SSW,196,3.0,6.0,97,0.00,,,0.02,0.000000,,2013-05-11 11:12:00,
2013-05-11 06:21:00,48.0,47.0,-100.00,SSW,196,3.0,6.0,97,0.00,,,0.02,0.000000,,2013-05-11 11:21:00,
2013-05-11 06:32:00,48.0,47.0,-100.00,SSW,196,3.0,6.0,97,0.00,,,0.02,0.000000,,2013-05-11 11:32:00,
2013-05-11 06:42:00,48.0,47.0,-100.00,SSW,196,3.0,6.0,97,0.00,,,0.02,0.000000,,2013-05-11 11:42:00,
2013-05-11 07:11:00,48.0,46.0,-100.00,WNW,299,9.0,17.0,94,0.00,,,-99.99,14.000000,,2013-05-11 12:11:00,
2013-05-11 07:22:00,48.0,46.0,-100.00,WNW,299,9.0,17.0,94,0.00,,,-99.99,14.000000,,2013-05-11 12:22:00,
2013-05-11 07:32:00,48.0,46.0,-100.00,WNW,299,9.0,17.0,94,0.00,,,-99.99,14.000000,,2013-05-11 12:32:00,
2013-05-11 07:42:00,48.0,46.0,-100.00,WNW,299,9.0,17.0,94,0.00,,,-99.99,14.000000,,2013-05-11 12:42:00,
2013-05-11 08:11:00,46.0,40.0,-100.00,NW,311,14.0,31.0,80,0.00,,,-99.99,98.000000,,2013-05-11 13:11:00,
2013-05-11 08:21:00,46.0,40.0,-100.00,NW,311,14.0,31.0,80,0.00,,,-99.99,98.000000,,2013-05-11 13:21:00,
2013-05-11 08:32:00,46.0,40.0,-100.00,NW,311,14.0,31.0,80,0.00,,,-99.99,98.000000,,2013-05-11 13:32:00,
2013-05-11 08:42:00,46.0,40.0,-100.00,NW,311,14.0,31.0,80,0.00,,,-99.99,98.000000,,2013-05-11 13:42:00,
2013-05-11 09:11:00,47.0,38.0,-100.00,NW,322,15.0,36.0,70,0.00,,,0.02,176.000000,,2013-05-11 14:11:00,
2013-05-11 09:21:00,47.0,38.0,-100.00,NW,322,15.0,36.0,70,0.00,,,0.02,176.000000,,2013-05-11 14:21:00,
2013-05-11 09:32:00,47.0,38.0,-100.00,NW,322,15.0,36.0,70,0.00,,,0.02,176.000000,,2013-05-11 14:32:00,
2013-05-11 09:42:00,47.0,38.0,-100.00,NW,322,15.0,36.0,70,0.00,,,0.02,176.000000,,2013-05-11 14:42:00,
2013-05-11 10:11:00,46.0,30.0,-100.00,NW,326,25.0,38.0,53,0.00,,,0.02,503.000000,,2013-05-11 15:11:00,
2013-05-11 10:21:00,46.0,30.0,-100.00,NW,326,25.0,38.0,53,0.00,,,0.02,503.000000,,2013-05-11 15:21:00,
2013-05-11 10:32:00,46.0,30.0,-100.00,NW,326,25.0,38.0,53,0.00,,,0.02,503.000000,,2013-05-11 15:32:00,
2013-05-11 10:43:00,46.0,30.0,-100.00,NW,326,25.0,38.0,53,0.00,,,0.02,503.000000,,2013-05-11 15:43:00,
2013-05-11 11:12:00,48.0,30.0,-100.00,NW,314,19.0,34.0,49,0.00,,,0.02,720.000000,,2013-05-11 16:12:00,
2013-05-11 11:23:00,48.0,30.0,-100.00,NW,314,19.0,34.0,49,0.00,,,0.02,720.000000,,2013-05-11 16:23:00,
2013-05-11 11:33:00,48.0,30.0,-100.00,NW,314,19.0,34.0,49,0.00,,,0.02,720.000000,,2013-05-11 16:33:00,
2013-05-11 11:42:00,48.0,30.0,-100.00,NW,314,19.0,34.0,49,0.00,,,0.02,720.000000,,2013-05-11 16:42:00,
2013-05-11 12:12:00,50.0,26.0,-100.00,NW,304,22.0,34.0,39,0.01,,,0.03,713.000000,,2013-05-11 17:12:00,
2013-05-11 12:22:00,50.0,26.0,-100.00,NW,304,22.0,34.0,39,0.01,,,0.03,713.000000,,2013-05-11 17:22:00,
2013-05-11 12:32:00,50.0,26.0,-100.00,NW,304,22.0,34.0,39,0.01,,,0.03,713.000000,,2013-05-11 17:32:00,
2013-05-11 12:42:00,50.0,26.0,-100.00,NW,304,22.0,34.0,39,0.01,,,0.03,713.000000,,2013-05-11 17:42:00,
2013-05-11 13:12:00,50.0,26.0,-100.00,NW,314,18.0,32.0,39,0.00,,,0.03,547.000000,,2013-05-11 18:12:00,
2013-05-11 13:21:00,50.0,26.0,-100.00,NW,314,18.0,32.0,39,0.00,,,0.03,547.000000,,2013-05-11 18:21:00,
2013-05-11 13:32:00,50.0,26.0,-100.00,NW,314,18.0,32.0,39,0.00,,,0.03,547.000000,,2013-05-11 18:32:00,
2013-05-11 13:42:00,50.0,26.0,-100.00,NW,314,18.0,32.0,39,0.00,,,0.03,547.000000,,2013-05-11 18:42:00,
2013-05-11 14:11:00,52.0,24.0,-100.00,WNW,302,20.0,32.0,33,0.00,,,0.03,523.000000,,2013-05-11 19:11:00,
2013-05-11 14:21:00,52.0,24.0,-100.00,WNW,302,20.0,32.0,33,0.00,,,0.03,523.000000,,2013-05-11 19:21:00,
2013-05-11 14:32:00,52.0,24.0,-100.00,WNW,302,20.0,32.0,33,0.00,,,0.03,523.000000,,2013-05-11 19:32:00,
2013-05-11 14:42:00,52.0,24.0,-100.00,WNW,302,20.0,32.0,33,0.00,,,0.03,523.000000,,2013-05-11 19:42:00,
2013-05-11 15:12:00,51.0,28.0,-100.00,WNW,301,17.0,39.0,41,0.00,,,0.03,572.000000,,2013-05-11 20:12:00,
2013-05-11 15:22:00,51.0,28.0,-100.00,WNW,301,17.0,39.0,41,0.00,,,0.03,572.000000,,2013-05-11 20:22:00,
2013-05-11 15:32:00,51.0,28.0,-100.00,WNW,301,17.0,39.0,41,0.00,,,0.03,572.000000,,2013-05-11 20:32:00,
2013-05-11 15:42:00,51.0,28.0,-100.00,WNW,301,17.0,39.0,41,0.00,,,0.03,572.000000,,2013-05-11 20:42:00,
2013-05-11 16:11:00,47.0,27.0,-100.00,NW,313,22.0,39.0,46,0.00,,,0.03,451.000000,,2013-05-11 21:11:00,
2013-05-11 16:21:00,47.0,27.0,-100.00,NW,313,22.0,39.0,46,0.00,,,0.03,451.000000,,2013-05-11 21:21:00,
2013-05-11 16:33:00,47.0,27.0,-100.00,NW,313,22.0,39.0,46,0.00,,,0.03,451.000000,,2013-05-11 21:33:00,
2013-05-11 16:43:00,47.0,27.0,-100.00,NW,313,22.0,39.0,46,0.00,,,0.03,451.000000,,2013-05-11 21:43:00,
2013-05-11 17:13:00,48.0,29.0,-100.00,NW,304,15.0,47.0,47,0.00,,,0.03,483.000000,,2013-05-11 22:13:00,
2013-05-11 17:23:00,48.0,29.0,-100.00,NW,304,15.0,47.0,47,0.00,,,0.03,483.000000,,2013-05-11 22:23:00,
2013-05-11 17:33:00,48.0,29.0,-100.00,NW,304,15.0,47.0,47,0.00,,,0.03,483.000000,,2013-05-11 22:33:00,
2013-05-11 17:42:00,48.0,29.0,-100.00,NW,304,15.0,47.0,47,0.00,,,0.03,483.000000,,2013-05-11 22:42:00,
2013-05-11 18:12:00,46.0,31.0,-100.00,NNW,327,15.0,37.0,56,0.00,,,0.03,318.000000,,2013-05-11 23:12:00,
2013-05-11 18:22:00,46.0,31.0,-100.00,NNW,327,15.0,37.0,56,0.00,,,0.03,318.000000,,2013-05-11 23:22:00,
2013-05-11 18:32:00,46.0,31.0,-100.00,NNW,327,15.0,37.0,56,0.00,,,0.03,318.000000,,2013-05-11 23:32:00,
2013-05-11 18:42:00,46.0,31.0,-100.00,NNW,327,15.0,37.0,56,0.00,,,0.03,318.000000,,2013-05-11 23:42:00,
2013-05-11 19:11:00,48.0,22.0,-100.00,NW,317,18.0,31.0,35,0.00,,,0.03,193.000000,,2013-05-12 00:11:00,
2013-05-11 19:21:00,48.0,22.0,-100.00,NW,317,18.0,31.0,35,0.00,,,0.03,193.000000,,2013-05-12 00:21:00,
2013-05-11 19:32:00,48.0,22.0,-100.00,NW,317,18.0,31.0,35,0.00,,,0.03,193.000000,,2013-05-12 00:32:00,
2013-05-11 19:42:00,48.0,22.0,-100.00,NW,317,18.0,31.0,35,0.00,,,0.03,193.000000,,2013-05-12 00:42:00,
2013-05-11 20:11:00,46.0,22.0,-100.00,NW,312,13.0,27.0,38,0.00,,,0.03,88.000000,,2013-05-12 01:11:00,
2013-05-11 20:21:00,46.0,22.0,-100.00,NW,312,13.0,27.0,38,0.00,,,0.03,88.000000,,2013-05-12 01:21:00,
2013-05-11 20:32:00,46.0,22.0,-100.00,NW,312,13.0,27.0,38,0.00,,,0.03,88.000000,,2013-05-12 01:32:00,
2013-05-11 20:42:00,46.0,22.0,-100.00,NW,312,13.0,27.0,38,0.00,,,0.03,88.000000,,2013-05-12 01:42:00,
2013-05-11 21:11:00,45.0,24.0,-100.00,WNW,295,12.0,24.0,43,0.00,,,0.03,5.000000,,2013-05-12 02:11:00,
2013-05-11 21:22:00,45.0,24.0,-100.00,WNW,295,12.0,24.0,43,0.00,,,0.03,5.000000,,2013-05-12 02:22:00,
2013-05-11 21:32:00,45.0,24.0,-100.00,WNW,295,12.0,24.0,43,0.00,,,0.03,5.000000,,2013-05-12 02:32:00,
2013-05-11 21:42:00,45.0,24.0,-100.00,WNW,295,12.0,24.0,43,0.00,,,0.03,5.000000,,2013-05-12 02:42:00,
2013-05-11 22:11:00,44.0,25.0,-100.00,NW,308,10.0,26.0,46,0.00,,,0.03,0.000000,,2013-05-12 03:11:00,
2013-05-11 22:22:00,44.0,25.0,-100.00,NW,308,10.0,26.0,46,0.00,,,0.03,0.000000,,2013-05-12 03:22:00,
2013-05-11 22:33:00,44.0,25.0,-100.00,NW,308,10.0,26.0,46,0.00,,,0.03,0.000000,,2013-05-12 03:33:00,
2013-05-11 22:43:00,44.0,25.0,-100.00,NW,308,10.0,26.0,46,0.00,,,0.03,0.000000,,2013-05-12 03:43:00,
2013-05-11 23:12:00,41.0,29.0,-100.00,NW,318,13.0,31.0,61,0.00,,,0.03,0.000000,,2013-05-12 04:12:00,
2013-05-11 23:22:00,41.0,29.0,-100.00,NW,318,13.0,31.0,61,0.00,,,0.03,0.000000,,2013-05-12 04:22:00,
2013-05-11 23:33:00,41.0,29.0,-100.00,NW,318,13.0,31.0,61,0.00,,,0.03,0.000000,,2013-05-12 04:33:00,
2013-05-11 23:43:00,41.0,29.0,-100.00,NW,318,13.0,31.0,61,0.00,,,0.03,0.000000,,2013-05-12 04:43:00,